Time,TemperatureF,DewpointF,PressureIn,WindDirection,WindDirectionDegrees,WindSpeedMPH,WindSpeedGustMPH,Humidity,HourlyPrecipIn,Conditions,Clouds,dailyrainin,SoftwareType,DateUTC
2013-05-17 00:01:00,64.4,52.8,29.82,SSW,203,0.4,0.7,66,0.00,,,0.00,WUHU216HW,2013-05-17 04:01:00,
2013-05-17 00:06:00,64.4,52.8,29.82,SSW,203,0.0,0.4,66,0.00,,,0.00,WUHU216HW,2013-05-17 04:06:00,
2013-05-17 00:11:00,64.4,52.8,29.82,SSW,203,0.0,0.4,66,0.00,,,0.00,WUHU216HW,2013-05-17 04:11:00,
2013-05-17 00:16:00,64.4,52.8,29.81,SSW,203,0.0,0.4,66,0.00,,,0.00,WUHU216HW,2013-05-17 04:16:00,
2013-05-17 00:21:00,64.6,53.0,29.81,SSW,203,0.0,0.4,66,0.00,,,0.00,WUHU216HW,2013-05-17 04:21:00,
2013-05-17 00:26:00,64.8,53.2,29.82,SSW,203,0.4,0.7,66,0.00,,,0.00,WUHU216HW,2013-05-17 04:26:00,
2013-05-17 00:31:00,64.8,53.2,29.82,SSW,203,0.0,0.7,66,0.00,,,0.00,WUHU216HW,2013-05-17 04:31:00,
2013-05-17 00:36:00,64.8,53.2,29.82,South,180,0.0,0.7,66,0.00,,,0.00,WUHU216HW,2013-05-17 04:36:00,
2013-05-17 00:41:00,64.8,53.2,29.81,SSE,158,0.0,0.4,66,0.00,,,0.00,WUHU216HW,2013-05-17 04:41:00,
2013-05-17 00:46:00,64.8,53.2,29.81,SSW,203,0.0,0.9,66,0.00,,,0.00,WUHU216HW,2013-05-17 04:46:00,
2013-05-17 00:51:00,64.6,53.4,29.81,SSW,203,0.0,0.9,67,0.00,,,0.00,WUHU216HW,2013-05-17 04:51:00,
2013-05-17 00:56:00,64.4,53.3,29.81,SSW,203,0.0,0.4,67,0.00,,,0.00,WUHU216HW,2013-05-17 04:56:00,
2013-05-17 01:01:00,64.3,53.5,29.81,SSW,203,0.0,0.4,68,0.00,,,0.00,WUHU216HW,2013-05-17 05:01:00,
2013-05-17 01:06:00,64.1,53.3,29.81,SSW,203,0.4,0.7,68,0.00,,,0.00,WUHU216HW,2013-05-17 05:06:00,
2013-05-17 01:11:00,63.7,53.0,29.81,SSW,203,0.4,0.7,68,0.00,,,0.00,WUHU216HW,2013-05-17 05:11:00,
2013-05-17 01:16:00,63.5,52.8,29.81,SSW,203,0.0,0.7,68,0.00,,,0.00,WUHU216HW,2013-05-17 05:16:00,
2013-05-17 01:21:00,63.4,53.0,29.81,SSW,203,0.0,0.7,69,0.00,,,0.00,WUHU216HW,2013-05-17 05:21:00,
2013-05-17 01:26:00,63.4,53.0,29.81,SSW,203,0.0,0.7,69,0.00,,,0.00,WUHU216HW,2013-05-17 05:26:00,
2013-05-17 01:31:00,63.4,53.5,29.81,SSW,203,0.0,0.4,70,0.00,,,0.00,WUHU216HW,2013-05-17 05:31:00,
2013-05-17 01:36:00,63.5,53.6,29.81,SSW,203,0.0,1.1,70,0.00,,,0.00,WUHU216HW,2013-05-17 05:36:00,
2013-05-17 01:41:00,63.5,53.6,29.81,SSW,203,0.0,1.1,70,0.00,,,0.00,WUHU216HW,2013-05-17 05:41:00,
2013-05-17 01:46:00,63.7,53.8,29.81,South,180,0.0,0.4,70,0.00,,,0.00,WUHU216HW,2013-05-17 05:46:00,
2013-05-17 01:51:00,63.7,53.8,29.81,South,180,0.0,0.4,70,0.00,,,0.00,WUHU216HW,2013-05-17 05:51:00,
2013-05-17 01:56:00,63.5,53.6,29.80,South,180,0.0,0.0,70,0.00,,,0.00,WUHU216HW,2013-05-17 05:56:00,
2013-05-17 02:01:00,63.5,53.6,29.80,South,180,0.0,0.2,70,0.00,,,0.00,WUHU216HW,2013-05-17 06:01:00,
2013-05-17 02:06:00,63.4,53.5,29.80,South,180,0.0,0.2,70,0.00,,,0.00,WUHU216HW,2013-05-17 06:06:00,
2013-05-17 02:11:00,63.2,53.3,29.81,South,180,0.0,0.0,70,0.00,,,0.00,WUHU216HW,2013-05-17 06:11:00,
2013-05-17 02:16:00,63.0,53.5,29.80,SSW,203,0.7,0.9,71,0.00,,,0.00,WUHU216HW,2013-05-17 06:16:00,
2013-05-17 02:21:00,63.0,53.5,29.80,SSW,203,0.0,0.9,71,0.00,,,0.00,WUHU216HW,2013-05-17 06:21:00,
2013-05-17 02:26:00,63.0,53.5,29.81,SSW,203,0.0,0.7,71,0.00,,,0.00,WUHU216HW,2013-05-17 06:26:00,
2013-05-17 02:31:00,63.2,54.0,29.81,SSW,203,0.0,0.0,72,0.00,,,0.00,WUHU216HW,2013-05-17 06:31:00,
2013-05-17 02:36:00,63.4,54.2,29.81,SSW,203,0.0,0.0,72,0.00,,,0.00,WUHU216HW,2013-05-17 06:36:00,
2013-05-17 02:41:00,63.5,54.4,29.81,South,180,0.0,0.0,72,0.00,,,0.00,WUHU216HW,2013-05-17 06:41:00,
2013-05-17 02:46:00,63.7,54.2,29.81,ENE,68,0.0,0.4,71,0.00,,,0.00,WUHU216HW,2013-05-17 06:46:00,
2013-05-17 02:51:00,63.7,54.2,29.81,ENE,68,0.0,0.4,71,0.00,,,0.00,WUHU216HW,2013-05-17 06:51:00,
2013-05-17 02:56:00,63.7,54.2,29.81,East,90,0.0,0.4,71,0.00,,,0.00,WUHU216HW,2013-05-17 06:56:00,
2013-05-17 03:01:00,63.7,54.2,29.81,South,180,0.0,0.7,71,0.00,,,0.00,WUHU216HW,2013-05-17 07:01:00,
2013-05-17 03:06:00,63.7,54.2,29.81,South,180,0.0,0.7,71,0.00,,,0.00,WUHU216HW,2013-05-17 07:06:00,
2013-05-17 03:11:00,63.9,54.4,29.81,South,180,0.0,0.0,71,0.00,,,0.00,WUHU216HW,2013-05-17 07:11:00,
2013-05-17 03:16:00,64.1,54.9,29.81,NNE,23,0.0,0.2,72,0.00,,,0.00,WUHU216HW,2013-05-17 07:16:00,
2013-05-17 03:21:00,64.3,54.7,29.81,NNE,23,0.2,0.9,71,0.00,,,0.00,WUHU216HW,2013-05-17 07:21:00,
2013-05-17 03:26:00,64.3,54.4,29.81,NNE,23,0.0,0.9,70,0.00,,,0.00,WUHU216HW,2013-05-17 07:26:00,
2013-05-17 03:31:00,64.3,54.4,29.81,NNE,23,0.0,0.2,70,0.00,,,0.00,WUHU216HW,2013-05-17 07:31:00,
2013-05-17 03:36:00,64.3,54.7,29.81,NNE,23,0.0,0.0,71,0.00,,,0.00,WUHU216HW,2013-05-17 07:36:00,
2013-05-17 03:41:00,64.4,54.9,29.81,NE,45,0.0,0.4,71,0.00,,,0.00,WUHU216HW,2013-05-17 07:41:00,
2013-05-17 03:46:00,64.4,54.5,29.81,NE,45,0.0,0.4,70,0.00,,,0.00,WUHU216HW,2013-05-17 07:46:00,
2013-05-17 03:51:00,64.3,54.4,29.81,NE,45,0.0,0.4,70,0.00,,,0.00,WUHU216HW,2013-05-17 07:51:00,
2013-05-17 03:56:00,64.1,54.2,29.81,SW,225,1.1,1.1,70,0.00,,,0.00,WUHU216HW,2013-05-17 07:56:00,
2013-05-17 04:01:00,64.1,54.2,29.81,SW,225,0.0,1.1,70,0.00,,,0.00,WUHU216HW,2013-05-17 08:01:00,
2013-05-17 04:06:00,64.1,54.5,29.81,SW,225,0.0,1.1,71,0.00,,,0.00,WUHU216HW,2013-05-17 08:06:00,
2013-05-17 04:11:00,64.1,54.5,29.81,NNE,23,0.0,0.7,71,0.00,,,0.00,WUHU216HW,2013-05-17 08:11:00,
2013-05-17 04:16:00,64.1,54.5,29.81,NE,45,0.0,0.7,71,0.00,,,0.00,WUHU216HW,2013-05-17 08:16:00,
2013-05-17 04:21:00,64.1,54.2,29.81,NE,45,0.0,0.7,70,0.00,,,0.00,WUHU216HW,2013-05-17 08:21:00,
2013-05-17 04:26:00,63.9,54.0,29.81,NE,45,0.0,0.0,70,0.00,,,0.00,WUHU216HW,2013-05-17 08:26:00,
2013-05-17 04:31:00,64.1,54.2,29.81,North,0,0.0,0.0,70,0.00,,,0.00,WUHU216HW,2013-05-17 08:31:00,
2013-05-17 04:36:00,64.1,54.2,29.81,North,0,0.0,0.0,70,0.00,,,0.00,WUHU216HW,2013-05-17 08:36:00,
2013-05-17 04:41:00,64.1,54.2,29.82,North,0,0.0,0.4,70,0.00,,,0.00,WUHU216HW,2013-05-17 08:41:00,
2013-05-17 04:46:00,64.1,54.2,29.82,North,0,0.0,0.4,70,0.00,,,0.00,WUHU216HW,2013-05-17 08:46:00,
2013-05-17 04:51:00,64.1,54.2,29.81,North,0,0.0,0.4,70,0.00,,,0.00,WUHU216HW,2013-05-17 08:51:00,
2013-05-17 04:56:00,64.1,54.2,29.81,North,0,0.0,0.4,70,0.00,,,0.00,WUHU216HW,2013-05-17 08:56:00,
2013-05-17 05:01:00,64.1,54.2,29.82,North,0,0.0,0.4,70,0.00,,,0.00,WUHU216HW,2013-05-17 09:01:00,
2013-05-17 05:06:00,64.1,54.5,29.82,ENE,68,0.2,1.1,71,0.00,,,0.00,WUHU216HW,2013-05-17 09:06:00,
2013-05-17 05:11:00,64.1,54.2,29.82,SW,225,0.0,1.1,70,0.00,,,0.00,WUHU216HW,2013-05-17 09:11:00,
2013-05-17 05:16:00,64.1,54.2,29.82,ENE,68,0.0,1.1,70,0.00,,,0.00,WUHU216HW,2013-05-17 09:16:00,
2013-05-17 05:21:00,64.1,54.2,29.82,ENE,68,0.0,1.6,70,0.00,,,0.00,WUHU216HW,2013-05-17 09:21:00,
2013-05-17 05:26:00,64.1,54.2,29.82,ENE,68,0.0,1.6,70,0.00,,,0.00,WUHU216HW,2013-05-17 09:26:00,
2013-05-17 05:31:00,63.9,54.0,29.82,ENE,68,0.0,0.4,70,0.00,,,0.00,WUHU216HW,2013-05-17 09:31:00,
2013-05-17 05:36:00,63.9,53.6,29.82,ENE,68,0.0,0.0,69,0.00,,,0.00,WUHU216HW,2013-05-17 09:36:00,
2013-05-17 05:41:00,63.9,53.6,29.83,ENE,68,0.0,0.2,69,0.00,,,0.00,WUHU216HW,2013-05-17 09:41:00,
2013-05-17 05:46:00,64.1,53.7,29.83,ENE,68,0.0,0.2,69,0.00,,,0.00,WUHU216HW,2013-05-17 09:46:00,
2013-05-17 05:51:00,63.9,53.6,29.82,ENE,68,0.0,0.0,69,0.00,,,0.00,WUHU216HW,2013-05-17 09:51:00,
2013-05-17 05:56:00,63.9,53.6,29.82,ENE,68,0.0,0.0,69,0.00,,,0.00,WUHU216HW,2013-05-17 09:56:00,
2013-05-17 06:01:00,63.9,53.2,29.83,South,180,0.0,0.4,68,0.00,,,0.00,WUHU216HW,2013-05-17 10:01:00,
2013-05-17 06:06:00,63.7,53.0,29.83,SE,135,0.0,0.4,68,0.00,,,0.00,WUHU216HW,2013-05-17 10:06:00,
2013-05-17 06:11:00,63.7,53.0,29.83,SE,135,0.0,0.4,68,0.00,,,0.00,WUHU216HW,2013-05-17 10:11:00,
2013-05-17 06:16:00,63.7,53.0,29.83,South,180,0.0,0.7,68,0.00,,,0.00,WUHU216HW,2013-05-17 10:16:00,
2013-05-17 06:21:00,63.5,52.8,29.83,South,180,0.0,0.7,68,0.00,,,0.00,WUHU216HW,2013-05-17 10:21:00,
2013-05-17 06:26:00,63.4,52.7,29.84,SSW,203,0.0,0.4,68,0.00,,,0.00,WUHU216HW,2013-05-17 10:26:00,
2013-05-17 06:31:00,63.4,52.7,29.84,South,180,0.0,0.4,68,0.00,,,0.00,WUHU216HW,2013-05-17 10:31:00,
2013-05-17 06:36:00,63.4,53.0,29.84,South,180,0.0,0.0,69,0.00,,,0.00,WUHU216HW,2013-05-17 10:36:00,
2013-05-17 06:41:00,63.4,53.0,29.84,South,180,0.0,0.0,69,0.00,,,0.00,WUHU216HW,2013-05-17 10:41:00,
2013-05-17 06:46:00,63.5,52.8,29.84,South,180,0.0,0.0,68,0.00,,,0.00,WUHU216HW,2013-05-17 10:46:00,
2013-05-17 06:51:00,63.5,52.8,29.84,South,180,0.0,0.0,68,0.00,,,0.00,WUHU216HW,2013-05-17 10:51:00,
2013-05-17 06:56:00,63.7,53.0,29.84,South,180,0.0,0.0,68,0.00,,,0.00,WUHU216HW,2013-05-17 10:56:00,
2013-05-17 07:01:00,63.7,53.0,29.84,South,180,0.0,0.0,68,0.00,,,0.00,WUHU216HW,2013-05-17 11:01:00,
2013-05-17 07:06:00,63.7,53.0,29.84,South,180,0.0,0.0,68,0.00,,,0.00,WUHU216HW,2013-05-17 11:06:00,
2013-05-17 07:11:00,63.7,53.4,29.84,ENE,68,0.4,0.7,69,0.00,,,0.00,WUHU216HW,2013-05-17 11:11:00,
2013-05-17 07:16:00,63.7,53.4,29.84,ENE,68,0.0,0.7,69,0.00,,,0.00,WUHU216HW,2013-05-17 11:16:00,
2013-05-17 07:21:00,63.7,53.4,29.84,ESE,113,0.2,0.4,69,0.00,,,0.00,WUHU216HW,2013-05-17 11:21:00,
2013-05-17 07:26:00,63.7,53.4,29.84,ESE,113,0.0,0.2,69,0.00,,,0.00,WUHU216HW,2013-05-17 11:26:00,
2013-05-17 07:31:00,63.7,53.4,29.85,SSW,203,0.4,0.7,69,0.00,,,0.00,WUHU216HW,2013-05-17 11:31:00,
2013-05-17 07:36:00,63.7,53.8,29.85,SSW,203,0.0,0.7,70,0.00,,,0.00,WUHU216HW,2013-05-17 11:36:00,
2013-05-17 07:41:00,63.9,54.0,29.85,South,180,1.1,1.1,70,0.00,,,0.00,WUHU216HW,2013-05-17 11:41:00,
2013-05-17 07:46:00,63.9,54.0,29.85,SSW,203,0.9,1.1,70,0.00,,,0.00,WUHU216HW,2013-05-17 11:46:00,
2013-05-17 07:51:00,64.1,54.2,29.85,SSW,203,0.0,1.1,70,0.00,,,0.00,WUHU216HW,2013-05-17 11:51:00,
2013-05-17 07:56:00,64.3,54.4,29.85,South,180,0.0,0.4,70,0.00,,,0.00,WUHU216HW,2013-05-17 11:56:00,
2013-05-17 08:01:00,64.8,54.9,29.85,South,180,0.0,0.4,70,0.00,,,0.00,WUHU216HW,2013-05-17 12:01:00,
2013-05-17 08:06:00,65.0,54.6,29.86,South,180,0.0,0.4,69,0.00,,,0.00,WUHU216HW,2013-05-17 12:06:00,
2013-05-17 08:11:00,65.2,54.7,29.85,South,180,0.0,0.0,69,0.00,,,0.00,WUHU216HW,2013-05-17 12:11:00,
2013-05-17 08:16:00,65.2,55.2,29.86,NNE,23,0.4,0.7,70,0.00,,,0.00,WUHU216HW,2013-05-17 12:16:00,
2013-05-17 08:21:00,65.2,55.2,29.85,NNE,23,0.2,0.7,70,0.00,,,0.00,WUHU216HW,2013-05-17 12:21:00,
2013-05-17 08:26:00,65.3,54.9,29.85,NNE,23,0.0,0.7,69,0.00,,,0.00,WUHU216HW,2013-05-17 12:26:00,
2013-05-17 08:31:00,65.5,54.6,29.85,NNE,23,0.2,0.4,68,0.00,,,0.00,WUHU216HW,2013-05-17 12:31:00,
2013-05-17 08:36:00,65.9,54.5,29.86,NNE,23,0.0,0.4,67,0.00,,,0.00,WUHU216HW,2013-05-17 12:36:00,
2013-05-17 08:41:00,66.4,55.1,29.86,NNE,23,0.0,0.0,67,0.00,,,0.00,WUHU216HW,2013-05-17 12:41:00,
2013-05-17 08:46:00,67.0,55.6,29.86,NNE,23,0.0,0.0,67,0.00,,,0.00,WUHU216HW,2013-05-17 12:46:00,
2013-05-17 08:51:00,67.1,56.3,29.86,NE,45,0.4,1.1,68,0.00,,,0.00,WUHU216HW,2013-05-17 12:51:00,
2013-05-17 08:56:00,67.0,56.9,29.86,NNE,23,0.2,1.6,70,0.00,,,0.00,WUHU216HW,2013-05-17 12:56:00,
2013-05-17 09:01:00,67.0,56.9,29.86,NNE,23,0.4,1.6,70,0.00,,,0.00,WUHU216HW,2013-05-17 13:01:00,
2013-05-17 09:06:00,67.3,57.2,29.86,NNE,23,0.9,0.9,70,0.00,,,0.00,WUHU216HW,2013-05-17 13:06:00,
2013-05-17 09:11:00,67.7,57.2,29.86,NNE,23,0.0,0.9,69,0.00,,,0.00,WUHU216HW,2013-05-17 13:11:00,
2013-05-17 09:16:00,68.2,57.2,29.86,NE,45,0.0,0.9,68,0.00,,,0.00,WUHU216HW,2013-05-17 13:16:00,
2013-05-17 09:21:00,68.6,57.2,29.86,NNE,23,0.0,0.4,67,0.00,,,0.00,WUHU216HW,2013-05-17 13:21:00,
2013-05-17 09:26:00,68.8,57.8,29.86,NNE,23,0.9,1.1,68,0.00,,,0.00,WUHU216HW,2013-05-17 13:26:00,
2013-05-17 09:31:00,68.9,58.0,29.86,South,180,0.0,1.1,68,0.00,,,0.00,WUHU216HW,2013-05-17 13:31:00,
2013-05-17 09:36:00,69.7,58.1,29.87,ENE,68,0.4,1.8,67,0.00,,,0.00,WUHU216HW,2013-05-17 13:36:00,
2013-05-17 09:41:00,70.6,59.1,29.87,NE,45,0.0,2.0,67,0.00,,,0.00,WUHU216HW,2013-05-17 13:41:00,
2013-05-17 09:46:00,71.1,58.7,29.87,NE,45,0.4,2.2,65,0.00,,,0.00,WUHU216HW,2013-05-17 13:46:00,
2013-05-17 09:51:00,71.6,59.7,29.87,NE,45,0.0,2.2,66,0.00,,,0.00,WUHU216HW,2013-05-17 13:51:00,
2013-05-17 09:56:00,72.4,59.5,29.87,NNE,23,0.4,0.4,64,0.00,,,0.00,WUHU216HW,2013-05-17 13:56:00,
2013-05-17 10:01:00,72.5,60.0,29.87,NNE,23,1.1,1.1,65,0.00,,,0.00,WUHU216HW,2013-05-17 14:01:00,
2013-05-17 10:06:00,72.4,60.0,29.87,North,0,2.7,2.7,65,0.00,,,0.00,WUHU216HW,2013-05-17 14:06:00,
2013-05-17 10:11:00,72.2,60.2,29.87,ENE,68,1.6,2.7,66,0.00,,,0.00,WUHU216HW,2013-05-17 14:11:00,
2013-05-17 10:16:00,72.0,60.4,29.87,North,0,1.3,2.7,67,0.00,,,0.00,WUHU216HW,2013-05-17 14:16:00,
2013-05-17 10:21:00,72.4,60.8,29.87,NNE,23,0.2,2.5,67,0.00,,,0.00,WUHU216HW,2013-05-17 14:21:00,
2013-05-17 10:26:00,72.7,60.7,29.87,WSW,248,0.9,1.3,66,0.00,,,0.00,WUHU216HW,2013-05-17 14:26:00,
2013-05-17 10:31:00,73.1,60.6,29.87,WSW,248,0.9,1.6,65,0.00,,,0.00,WUHU216HW,2013-05-17 14:31:00,
2013-05-17 10:36:00,73.4,60.0,29.87,NW,315,0.2,1.6,63,0.00,,,0.00,WUHU216HW,2013-05-17 14:36:00,
2013-05-17 10:41:00,73.1,58.8,29.87,WSW,248,0.4,1.1,61,0.00,,,0.00,WUHU216HW,2013-05-17 14:41:00,
2013-05-17 10:46:00,73.3,58.5,29.88,NNW,338,0.2,1.3,60,0.00,,,0.00,WUHU216HW,2013-05-17 14:46:00,
2013-05-17 10:51:00,73.3,58.5,29.88,NNW,338,0.0,1.3,60,0.00,,,0.00,WUHU216HW,2013-05-17 14:51:00,
2013-05-17 10:56:00,73.6,58.9,29.88,NNW,338,0.0,0.4,60,0.00,,,0.00,WUHU216HW,2013-05-17 14:56:00,
2013-05-17 11:01:00,73.6,57.9,29.88,ENE,68,0.9,1.8,58,0.00,,,0.00,WUHU216HW,2013-05-17 15:01:00,
2013-05-17 11:06:00,73.6,57.9,29.88,North,0,0.9,1.8,58,0.00,,,0.00,WUHU216HW,2013-05-17 15:06:00,
2013-05-17 11:11:00,73.8,58.5,29.88,ENE,68,1.1,1.8,59,0.00,,,0.00,WUHU216HW,2013-05-17 15:11:00,
2013-05-17 11:16:00,73.3,57.5,29.88,ENE,68,2.7,3.4,58,0.00,,,0.00,WUHU216HW,2013-05-17 15:16:00,
2013-05-17 11:21:00,72.4,57.7,29.87,NW,315,0.0,3.4,60,0.00,,,0.00,WUHU216HW,2013-05-17 15:21:00,
2013-05-17 11:26:00,73.1,58.8,29.88,NW,315,0.2,3.4,61,0.00,,,0.00,WUHU216HW,2013-05-17 15:26:00,
2013-05-17 11:31:00,73.6,58.3,29.88,ENE,68,1.1,1.8,59,0.00,,,0.00,WUHU216HW,2013-05-17 15:31:00,
2013-05-17 11:36:00,74.0,58.7,29.88,SSW,203,0.2,1.8,59,0.00,,,0.00,WUHU216HW,2013-05-17 15:36:00,
2013-05-17 11:41:00,73.8,58.5,29.88,NE,45,0.4,1.8,59,0.00,,,0.00,WUHU216HW,2013-05-17 15:41:00,
2013-05-17 11:46:00,74.2,58.4,29.88,NE,45,1.1,1.8,58,0.00,,,0.00,WUHU216HW,2013-05-17 15:46:00,
2013-05-17 11:51:00,74.9,59.1,29.88,North,0,0.4,1.6,58,0.00,,,0.00,WUHU216HW,2013-05-17 15:51:00,
2013-05-17 11:56:00,75.2,59.5,29.88,NNE,23,1.1,1.6,58,0.00,,,0.00,WUHU216HW,2013-05-17 15:56:00,
2013-05-17 12:01:00,75.6,58.8,29.88,NNE,23,0.4,1.3,56,0.00,,,0.00,WUHU216HW,2013-05-17 16:01:00,
2013-05-17 12:06:00,75.8,59.5,29.88,West,270,0.7,1.3,57,0.00,,,0.00,WUHU216HW,2013-05-17 16:06:00,
2013-05-17 12:11:00,75.8,59.9,29.87,NE,45,0.7,1.8,58,0.00,,,0.00,WUHU216HW,2013-05-17 16:11:00,
2013-05-17 12:16:00,76.5,60.6,29.87,NNE,23,0.0,1.8,58,0.00,,,0.00,WUHU216HW,2013-05-17 16:16:00,
2013-05-17 12:21:00,77.4,61.5,29.87,WSW,248,1.1,1.3,58,0.00,,,0.00,WUHU216HW,2013-05-17 16:21:00,
2013-05-17 12:26:00,77.9,60.9,29.87,WSW,248,0.2,1.6,56,0.00,,,0.00,WUHU216HW,2013-05-17 16:26:00,
2013-05-17 12:31:00,77.9,59.4,29.87,North,0,0.7,1.8,53,0.00,,,0.00,WUHU216HW,2013-05-17 16:31:00,
2013-05-17 12:36:00,77.8,59.2,29.87,NE,45,0.4,1.8,53,0.00,,,0.00,WUHU216HW,2013-05-17 16:36:00,
2013-05-17 12:41:00,78.1,59.6,29.87,SW,225,0.4,1.8,53,0.00,,,0.00,WUHU216HW,2013-05-17 16:41:00,
2013-05-17 12:46:00,78.3,59.2,29.86,NW,315,0.0,2.0,52,0.00,,,0.00,WUHU216HW,2013-05-17 16:46:00,
2013-05-17 12:51:00,78.1,59.0,29.86,SSW,203,2.5,2.5,52,0.00,,,0.00,WUHU216HW,2013-05-17 16:51:00,
2013-05-17 12:56:00,77.9,58.9,29.86,North,0,0.0,2.5,52,0.00,,,0.00,WUHU216HW,2013-05-17 16:56:00,
2013-05-17 13:01:00,78.1,59.0,29.86,NNE,23,0.4,2.5,52,0.00,,,0.00,WUHU216HW,2013-05-17 17:01:00,
2013-05-17 13:06:00,78.1,58.6,29.86,NNW,338,0.0,2.5,51,0.00,,,0.00,WUHU216HW,2013-05-17 17:06:00,
2013-05-17 13:11:00,78.3,59.2,29.86,North,0,0.0,2.5,52,0.00,,,0.00,WUHU216HW,2013-05-17 17:11:00,
2013-05-17 13:16:00,78.8,58.7,29.86,NNE,23,0.0,0.9,50,0.00,,,0.00,WUHU216HW,2013-05-17 17:16:00,
2013-05-17 13:21:00,78.1,57.4,29.86,NNW,338,0.0,1.8,49,0.00,,,0.00,WUHU216HW,2013-05-17 17:21:00,
2013-05-17 13:26:00,78.1,58.1,29.86,WSW,248,0.4,1.8,50,0.00,,,0.00,WUHU216HW,2013-05-17 17:26:00,
2013-05-17 13:31:00,78.1,58.1,29.86,SSW,203,1.1,1.6,50,0.00,,,0.00,WUHU216HW,2013-05-17 17:31:00,
2013-05-17 13:36:00,78.5,58.9,29.86,NE,45,1.1,1.8,51,0.00,,,0.00,WUHU216HW,2013-05-17 17:36:00,
2013-05-17 13:41:00,79.0,59.4,29.85,NNE,23,0.0,2.2,51,0.00,,,0.00,WUHU216HW,2013-05-17 17:41:00,
2013-05-17 13:46:00,79.7,60.0,29.85,SSW,203,2.2,2.7,51,0.00,,,0.00,WUHU216HW,2013-05-17 17:46:00,
2013-05-17 13:51:00,80.5,60.1,29.85,NE,45,1.1,2.7,50,0.00,,,0.00,WUHU216HW,2013-05-17 17:51:00,
2013-05-17 13:56:00,81.2,58.3,29.85,NE,45,1.8,3.6,46,0.00,,,0.00,WUHU216HW,2013-05-17 17:56:00,
2013-05-17 14:01:00,80.1,58.6,29.85,SW,225,0.4,3.6,48,0.00,,,0.00,WUHU216HW,2013-05-17 18:01:00,
2013-05-17 14:06:00,80.3,59.4,29.85,NNW,338,0.2,1.8,49,0.00,,,0.00,WUHU216HW,2013-05-17 18:06:00,
2013-05-17 14:11:00,80.3,58.8,29.85,North,0,0.4,0.7,48,0.00,,,0.00,WUHU216HW,2013-05-17 18:11:00,
2013-05-17 14:16:00,79.6,58.2,29.85,NNE,23,0.7,2.2,48,0.00,,,0.00,WUHU216HW,2013-05-17 18:16:00,
2013-05-17 14:21:00,78.5,57.8,29.85,NE,45,1.1,2.5,49,0.00,,,0.00,WUHU216HW,2013-05-17 18:21:00,
2013-05-17 14:26:00,78.1,58.1,29.85,NE,45,0.0,2.5,50,0.00,,,0.00,WUHU216HW,2013-05-17 18:26:00,
2013-05-17 14:31:00,78.8,59.2,29.84,NW,315,0.0,1.1,51,0.00,,,0.00,WUHU216HW,2013-05-17 18:31:00,
2013-05-17 14:36:00,79.7,59.5,29.84,West,270,0.4,1.1,50,0.00,,,0.00,WUHU216HW,2013-05-17 18:36:00,
2013-05-17 14:41:00,80.6,59.7,29.84,West,270,0.0,1.1,49,0.00,,,0.00,WUHU216HW,2013-05-17 18:41:00,
2013-05-17 14:46:00,81.4,59.1,29.84,SSW,203,0.7,1.8,47,0.00,,,0.00,WUHU216HW,2013-05-17 18:46:00,
2013-05-17 14:51:00,82.1,58.5,29.84,SE,135,0.4,1.8,45,0.00,,,0.00,WUHU216HW,2013-05-17 18:51:00,
2013-05-17 14:56:00,82.3,58.7,29.84,SW,225,1.6,4.7,45,0.00,,,0.00,WUHU216HW,2013-05-17 18:56:00,
2013-05-17 15:01:00,81.9,58.4,29.84,NNE,23,0.2,4.7,45,0.00,,,0.00,WUHU216HW,2013-05-17 19:01:00,
2013-05-17 15:06:00,82.1,58.5,29.84,SW,225,0.2,1.6,45,0.00,,,0.00,WUHU216HW,2013-05-17 19:06:00,
2013-05-17 15:11:00,82.1,58.5,29.84,SW,225,0.2,0.2,45,0.00,,,0.00,WUHU216HW,2013-05-17 19:11:00,
2013-05-17 15:32:00,79.9,57.8,29.83,SW,225,1.1,1.1,47,0.00,,,0.00,WUHU216HW,2013-05-17 19:32:00,
2013-05-17 15:37:00,79.9,57.8,29.83,SW,225,1.1,1.1,47,0.00,,,0.00,WUHU216HW,2013-05-17 19:37:00,
2013-05-17 19:00:00,80.8,55.0,29.82,SSW,203,0.4,0.4,41,0.00,,,0.00,WUHU216HW,2013-05-17 23:00:00,
2013-05-17 19:05:00,79.7,54.6,29.82,SW,225,0.0,0.4,42,0.00,,,0.00,WUHU216HW,2013-05-17 23:05:00,
2013-05-17 19:10:00,78.8,53.8,29.82,SW,225,1.3,1.3,42,0.00,,,0.00,WUHU216HW,2013-05-17 23:10:00,
2013-05-17 19:15:00,78.1,54.4,29.82,SW,225,0.2,1.3,44,0.00,,,0.00,WUHU216HW,2013-05-17 23:15:00,
2013-05-17 19:20:00,78.5,54.1,29.82,SW,225,0.4,1.1,43,0.00,,,0.00,WUHU216HW,2013-05-17 23:20:00,
2013-05-17 19:25:00,78.5,54.1,29.82,SW,225,0.0,1.1,43,0.00,,,0.00,WUHU216HW,2013-05-17 23:25:00,
2013-05-17 19:30:00,77.8,52.8,29.82,SSW,203,0.7,1.1,42,0.00,,,0.00,WUHU216HW,2013-05-17 23:30:00,
2013-05-17 19:35:00,76.9,52.7,29.82,SSW,203,0.0,1.1,43,0.00,,,0.00,WUHU216HW,2013-05-17 23:35:00,
2013-05-17 19:40:00,76.0,52.4,29.82,South,180,0.2,0.7,44,0.00,,,0.00,WUHU216HW,2013-05-17 23:40:00,
2013-05-17 19:45:00,75.2,51.8,29.83,South,180,0.4,0.4,44,0.00,,,0.00,WUHU216HW,2013-05-17 23:45:00,
2013-05-17 19:50:00,74.5,51.7,29.83,SSW,203,0.4,1.1,45,0.00,,,0.00,WUHU216HW,2013-05-17 23:50:00,
2013-05-17 19:55:00,73.6,51.5,29.82,SSW,203,0.7,1.1,46,0.00,,,0.00,WUHU216HW,2013-05-17 23:55:00,
2013-05-17 20:00:00,72.9,51.4,29.83,SSW,203,0.2,1.1,47,0.00,,,0.00,WUHU216HW,2013-05-18 00:00:00,
2013-05-17 20:05:00,72.4,50.9,29.83,South,180,0.2,1.1,47,0.00,,,0.00,WUHU216HW,2013-05-18 00:05:00,
2013-05-17 20:10:00,72.0,51.1,29.83,South,180,0.0,1.1,48,0.00,,,0.00,WUHU216HW,2013-05-18 00:10:00,
2013-05-17 20:15:00,71.6,50.9,29.83,South,180,0.0,0.2,48,0.00,,,0.00,WUHU216HW,2013-05-18 00:15:00,
2013-05-17 20:20:00,71.3,51.1,29.83,South,180,0.0,0.9,49,0.00,,,0.00,WUHU216HW,2013-05-18 00:20:00,
2013-05-17 20:25:00,70.7,50.6,29.83,South,180,0.0,0.9,49,0.00,,,0.00,WUHU216HW,2013-05-18 00:25:00,
2013-05-17 20:30:00,70.4,50.9,29.83,SSE,158,0.0,0.0,50,0.00,,,0.00,WUHU216HW,2013-05-18 00:30:00,
2013-05-17 20:35:00,69.8,50.4,29.83,SSE,158,0.0,0.0,50,0.00,,,0.00,WUHU216HW,2013-05-18 00:35:00,
2013-05-17 20:40:00,69.5,50.0,29.83,ENE,68,0.7,0.7,50,0.00,,,0.00,WUHU216HW,2013-05-18 00:40:00,
2013-05-17 20:45:00,69.1,49.8,29.83,ENE,68,0.0,0.7,50,0.00,,,0.00,WUHU216HW,2013-05-18 00:45:00,
2013-05-17 20:50:00,68.8,49.4,29.84,ENE,68,0.0,0.7,50,0.00,,,0.00,WUHU216HW,2013-05-18 00:50:00,
2013-05-17 20:55:00,68.6,49.8,29.84,ENE,68,0.0,0.0,51,0.00,,,0.00,WUHU216HW,2013-05-18 00:55:00,
2013-05-17 21:00:00,68.4,50.0,29.84,ENE,68,0.0,0.0,52,0.00,,,0.00,WUHU216HW,2013-05-18 01:00:00,
2013-05-17 21:05:00,68.4,50.0,29.83,ENE,68,0.0,0.0,52,0.00,,,0.00,WUHU216HW,2013-05-18 01:05:00,
2013-05-17 21:10:00,68.0,50.2,29.83,ENE,68,0.0,0.0,53,0.00,,,0.00,WUHU216HW,2013-05-18 01:10:00,
2013-05-17 21:15:00,67.7,50.0,29.83,ENE,68,0.0,0.0,53,0.00,,,0.00,WUHU216HW,2013-05-18 01:15:00,
2013-05-17 21:20:00,67.5,50.2,29.83,South,180,0.0,0.4,54,0.00,,,0.00,WUHU216HW,2013-05-18 01:20:00,
2013-05-17 21:25:00,67.3,50.6,29.83,SSW,203,1.1,1.1,55,0.00,,,0.00,WUHU216HW,2013-05-18 01:25:00,
2013-05-17 21:30:00,67.0,50.2,29.83,SSW,203,0.0,1.1,55,0.00,,,0.00,WUHU216HW,2013-05-18 01:30:00,
2013-05-17 21:35:00,66.6,50.4,29.83,SSW,203,0.0,1.1,56,0.00,,,0.00,WUHU216HW,2013-05-18 01:35:00,
2013-05-17 21:40:00,66.6,50.4,29.83,SSW,203,0.0,1.1,56,0.00,,,0.00,WUHU216HW,2013-05-18 01:40:00,
2013-05-17 21:45:00,66.2,50.6,29.84,South,180,0.7,1.8,57,0.00,,,0.00,WUHU216HW,2013-05-18 01:45:00,
2013-05-17 21:50:00,65.9,50.2,29.84,SSW,203,0.0,1.8,57,0.00,,,0.00,WUHU216HW,2013-05-18 01:50:00,
2013-05-17 21:55:00,65.7,50.5,29.84,SSW,203,0.0,1.6,58,0.00,,,0.00,WUHU216HW,2013-05-18 01:55:00,
2013-05-17 22:00:00,65.5,50.9,29.84,South,180,0.0,0.9,59,0.00,,,0.00,WUHU216HW,2013-05-18 02:00:00,
2013-05-17 22:05:00,65.5,50.9,29.84,SE,135,0.0,0.9,59,0.00,,,0.00,WUHU216HW,2013-05-18 02:05:00,
2013-05-17 22:10:00,65.3,50.7,29.84,South,180,0.0,1.6,59,0.00,,,0.00,WUHU216HW,2013-05-18 02:10:00,
2013-05-17 22:15:00,65.3,51.1,29.84,SSW,203,0.2,1.6,60,0.00,,,0.00,WUHU216HW,2013-05-18 02:15:00,
2013-05-17 22:20:00,65.2,50.9,29.84,South,180,0.4,1.1,60,0.00,,,0.00,WUHU216HW,2013-05-18 02:20:00,
2013-05-17 22:25:00,65.0,50.8,29.84,South,180,0.4,1.1,60,0.00,,,0.00,WUHU216HW,2013-05-18 02:25:00,
2013-05-17 22:30:00,65.0,51.2,29.84,South,180,0.2,1.1,61,0.00,,,0.00,WUHU216HW,2013-05-18 02:30:00,
2013-05-17 22:35:00,64.8,51.0,29.84,South,180,0.0,1.1,61,0.00,,,0.00,WUHU216HW,2013-05-18 02:35:00,
2013-05-17 22:40:00,64.8,51.0,29.84,SSW,203,1.3,1.3,61,0.00,,,0.00,WUHU216HW,2013-05-18 02:40:00,
2013-05-17 22:45:00,64.8,51.0,29.84,SSW,203,0.4,1.6,61,0.00,,,0.00,WUHU216HW,2013-05-18 02:45:00,
2013-05-17 22:50:00,64.8,51.5,29.84,East,90,0.4,1.6,62,0.00,,,0.00,WUHU216HW,2013-05-18 02:50:00,
2013-05-17 22:55:00,64.8,51.5,29.84,South,180,0.0,1.1,62,0.00,,,0.00,WUHU216HW,2013-05-18 02:55:00,
2013-05-17 23:00:00,64.8,51.5,29.84,SSW,203,0.4,1.1,62,0.00,,,0.00,WUHU216HW,2013-05-18 03:00:00,
2013-05-17 23:05:00,64.8,51.5,29.84,SSW,203,0.0,0.9,62,0.00,,,0.00,WUHU216HW,2013-05-18 03:05:00,
2013-05-17 23:10:00,64.8,51.8,29.84,SSW,203,0.0,0.7,63,0.00,,,0.00,WUHU216HW,2013-05-18 03:10:00,
2013-05-17 23:15:00,64.8,51.8,29.84,SSW,203,0.0,0.4,63,0.00,,,0.00,WUHU216HW,2013-05-18 03:15:00,
2013-05-17 23:20:00,64.8,51.8,29.84,SSW,203,0.0,0.4,63,0.00,,,0.00,WUHU216HW,2013-05-18 03:20:00,
2013-05-17 23:25:00,64.8,51.8,29.84,SSW,203,0.0,0.4,63,0.00,,,0.00,WUHU216HW,2013-05-18 03:25:00,
2013-05-17 23:30:00,64.8,52.3,29.84,SSW,203,0.7,1.1,64,0.00,,,0.00,WUHU216HW,2013-05-18 03:30:00,
2013-05-17 23:35:00,64.8,52.3,29.84,SSW,203,0.9,1.1,64,0.00,,,0.00,WUHU216HW,2013-05-18 03:35:00,
2013-05-17 23:40:00,64.8,52.3,29.84,SSW,203,0.0,0.9,64,0.00,,,0.00,WUHU216HW,2013-05-18 03:40:00,
2013-05-17 23:45:00,64.8,52.3,29.84,SSW,203,0.0,1.1,64,0.00,,,0.00,WUHU216HW,2013-05-18 03:45:00,
2013-05-17 23:50:00,64.8,52.8,29.84,SSW,203,0.7,1.1,65,0.00,,,0.00,WUHU216HW,2013-05-18 03:50:00,
2013-05-17 23:55:00,64.8,52.8,29.84,SSW,203,0.2,1.1,65,0.00,,,0.00,WUHU216HW,2013-05-18 03:55:00,